Flag for Switzerland Weather past 2 weeks in Kriens, Lucerne, Switzerland

Now
30 °F

Chilly.


Feels Like: 30 °F
Forecast: 14 / 35 °F
Wind: 1 mph from East

Location: Altdorf

Current Time: Feb 1, 2015 at 11:42:19 AM

Latest Report: Feb 1, 2015 at 11:00 AM


Visibility: N/A

Pressure: 29.38 "Hg

Humidity: 95%

Dew point: 29 °F

Location of KriensLocation

Historic Weather in Kriens — Graph

°F

Kriens temperature yesterday

Maximum temperature yesterday: 36 °F (at 3:00 PM)
Minimum temperature yesterday: 29 °F (at 9:00 AM)
Average temperature yesterday: 33 °F

Past Weeks' High & Low Weather Summary

 TemperatureHumidityPressure
High45 °F (Jan 29, 11:00 PM)99% (Jan 27, 1:00 AM)30.49 "Hg (Jan 27, 1:00 AM)
Low24 °F (Jan 26, 6:00 AM)37% (Jan 30, 12:00 AM)28.85 "Hg (Jan 30, 12:00 AM)
Average34 °F80%29.90 "Hg
* Reported Jan 17 10:00 AM — Feb 1 10:00 AM, Kriens, Weather by CustomWeather, © 2014

Note: Actual official high and low records may vary slightly from our data, if they occured in-between our weather recording intervals... More about our weather records

Advertising

Kriens weather history for previous 24 hours

 ConditionsComfort  
Time TempWeatherWind HumidityBarometerVisibility
10:00 AM
Feb 1
30 °FLight snow. Overcast.3 mph88%29.35 "Hg4 mi
9:00 AM30 °FChilly.2 mph90%29.35 "HgN/A
8:00 AM30 °FChilly.2 mph90%29.32 "HgN/A
7:00 AM30 °FChilly.2 mph83%29.29 "HgN/A
6:00 AM29 °FChilly.1 mph89%29.29 "HgN/A
5:00 AM31 °FChilly.2 mph75%29.26 "HgN/A
4:00 AM31 °FSnow. Overcast.3 mph88%29.26 "Hg2 mi
3:00 AM32 °FChilly.2 mph94%29.26 "HgN/A
2:00 AM32 °FChilly.1 mph98%29.26 "HgN/A
1:00 AM32 °FLight snow. Overcast.2 mph96%29.26 "Hg3 mi
12:00 AM32 °FChilly.1 mph96%29.26 "HgN/A
11:00 PM
Jan 31
33 °FChilly.2 mph95%29.26 "HgN/A
10:00 PM33 °FSnow. Overcast.1 mph96%29.26 "Hg1 mi
9:00 PM33 °FChilly.1 mph95%29.23 "HgN/A
8:00 PM34 °FChilly.No wind87%29.23 "HgN/A
7:00 PM33 °FOvercast.3 mph86%29.21 "Hg11 mi
6:00 PM33 °FChilly.2 mph84%29.18 "HgN/A
5:00 PM35 °FChilly.1 mph77%29.15 "HgN/A
4:00 PM36 °FOvercast.2 mph70%29.15 "Hg12 mi
3:00 PM36 °FChilly.3 mph69%29.12 "HgN/A
2:00 PM36 °FChilly.2 mph72%29.12 "HgN/A
1:00 PM33 °FPartly sunny.2 mph78%29.15 "Hg12 mi
12:00 PM34 °FChilly.2 mph71%29.15 "HgN/A
11:00 AM30 °FChilly.1 mph81%29.15 "HgN/A
Weather by CustomWeather, © 2014

See weather overviewHow to use our weather pages